Regional Weather Roundup
Issued by NWS Cleveland, OH

Home | Current Version | Previous Version | Text Only | Print | Product List | Glossary Off
Versions: 1 2 3 4 5 6 7 8 9 10 11 12 13 14 15 16 17 18 19 20 21 22 23 24 25 26 27 28 29 30 31 32 33 34 35 36 37 38 39 40 41 42 43 44 45 46 47 48 49 50

000
ASUS41 KCLE 230012
RWRCLE
OHIO REGIONAL WEATHER ROUNDUP
NATIONAL WEATHER SERVICE WILMINGTON, OH
800 PM EDT WED MAR 22 2017

NOTE: "FAIR" INDICATES FEW OR NO CLOUDS BELOW 12,000 FEET WITH NO
SIGNIFICANT WEATHER AND/OR OBSTRUCTIONS TO VISIBILITY.

OHZ001>008-015>018-024>027-034-035-043-044-230100-
   NORTHWEST OHIO

CITY           SKY/WX    TMP DP  RH WIND       PRES   REMARKS
DEFIANCE       FAIR      32  14  47 NE5       30.52S WCI  27
FINDLAY        FAIR      30  10  43 E9        30.52S WCI  22
TOLEDO EXPRESS FAIR      30  14  51 E6        30.53S WCI  24
TOLEDO EXEC    FAIR      29  15  56 E9        30.55S WCI  20
LIMA           FAIR      31  17  56 NE9       30.49F WCI  23
$$

OHZ009>014-019>023-028>033-038-089-230100-
   NORTHEAST OHIO

CITY           SKY/WX    TMP DP  RH WIND       PRES   REMARKS
CLE-HOPKINS    FAIR      28  12  51 N7        30.57F WCI  21
CLE-LAKEFRONT  FAIR      26  13  57 CALM      30.55S
CUY CO. ARPT   PTCLDY    27  14  59 N5        30.55R WCI  21
LORAIN-ELYRIA  FAIR      26  13  57 NE7       30.55S WCI  18
ASHTABULA      FAIR      25   9  50 NW5       30.53R WCI  19
AKRON-CANTON   FAIR      27   9  46 N9        30.49S WCI  18
WOOSTER        FAIR      27  12  53 N7        30.51S WCI  19
MANSFIELD      FAIR      26  13  57 N9        30.50S WCI  17
YOUNGSTOWN     FAIR      25   7  46 N10       30.50R WCI  15
$$

OHZ042-051>053-060>062-070>072-077>081-230100-
  SOUTHWEST OHIO

CITY           SKY/WX    TMP DP  RH WIND       PRES   REMARKS
CINC-COVINGTON FAIR      38  18  44 E13       30.44R
CINC-LUNKEN    FAIR      37  22  54 NE10      30.48R
HAMILTON       FAIR      37  20  50 E9        30.48R
DAYTON         FAIR      33  17  51 NE8       30.47S WCI  26
WRIGHT-PAT AFB FAIR      34  14  44 NE10      30.48R WCI  26
DAYTON GENERAL FAIR      34  19  54 E10       30.45S WCI  26
WILMINGTON     FAIR      33  21  61 NE12      30.45S WCI  24
$$

OHZ036-037-039>041-045>050-054>059-063>069-073>076-082>088-230100-
  CENTRAL AND SOUTHEAST OHIO

CITY           SKY/WX    TMP DP  RH WIND       PRES   REMARKS
COLUMBUS       FAIR      36  16  44 NE12      30.47F
OSU AIRPORT    FAIR      32  17  54 N14       30.47F WCI  22
BOLTON FIELD   NOT AVBL
RICKENBACK AFB FAIR      34  15  46 NE9       30.47S WCI  27
NEWARK         FAIR      35  12  38 N7        30.47S WCI  29
MARION         FAIR      28  16  60 NE12      30.51S WCI  18
LANCASTER      FAIR      35  19  52 NE8       30.47S WCI  29
ZANESVILLE     FAIR      35  12  38 N7        30.48R WCI  29
NEW PHILLY     FAIR      32  11  41 N7        30.50R WCI  26
$$



USA.gov is the U.S. government's official web portal to all federal, state and local government web resources and services.